| time (UTC) | temp F | wind direction | speed knots | gust knots | rain 1hr in | rain 24hr in | rain mn in | humidity % | barometer mb |
| 20260504202600 | 82 | 53 | 0.9 | 7.8 | 0.00 | 0.00 | 0.00 | 30 | 1007.6 |
| 20260504202054 | 81 | 221 | 0.9 | 7.8 | 0.00 | 0.00 | 0.00 | 30 | 1007.7 |
| 20260504201548 | 81 | 183 | 0.9 | 4.3 | 0.00 | 0.00 | 0.00 | 31 | 1007.7 |
| 20260504201042 | 82 | 59 | 0.9 | 4.3 | 0.00 | 0.00 | 0.00 | 29 | 1007.9 |
| 20260504200536 | 82 | 257 | 0.9 | 3.5 | 0.00 | 0.00 | 0.00 | 30 | 1007.9 |
| 20260504200031 | 82 | 140 | 0.9 | 2.6 | 0.00 | 0.00 | 0.00 | 30 | 1007.9 |
| 20260504195524 | 82 | 159 | 0.9 | 2.6 | 0.00 | 0.00 | 0.00 | 31 | 1007.9 |
| 20260504195018 | 82 | 170 | 0.9 | 5.2 | 0.00 | 0.00 | 0.00 | 30 | 1007.9 |
| 20260504194512 | 81 | 219 | 0.0 | 5.2 | 0.00 | 0.00 | 0.00 | 30 | 1008.0 |
| 20260504194006 | 81 | 221 | 0.9 | 2.6 | 0.00 | 0.00 | 0.00 | 31 | 1008.1 |
| 20260504193459 | 80 | 169 | 0.9 | 3.5 | 0.00 | 0.00 | 0.00 | 32 | 1008.1 |
| 20260504192954 | 80 | 222 | 0.9 | 3.5 | 0.00 | 0.00 | 0.00 | 31 | 1008.3 |
| 20260504192448 | 80 | 340 | 0.9 | 2.6 | 0.00 | 0.00 | 0.00 | 33 | 1008.5 |
| 20260504191948 | 80 | 101 | 0.9 | 5.2 | 0.00 | 0.00 | 0.00 | 32 | 1008.6 |
| 20260504191449 | 79 | 120 | 0.9 | 5.2 | 0.00 | 0.00 | 0.00 | 32 | 1008.5 |
| 20260504191210 | 79 | 160 | 0.9 | 3.5 | 0.00 | 0.00 | 0.00 | 32 | 1008.5 |
| 20260504190448 | 78 | 232 | 0.9 | 3.5 | 0.00 | 0.00 | 0.00 | 31 | 1008.8 |
| 20260504185947 | 78 | 110 | 0.9 | 3.5 | 0.00 | 0.00 | 0.00 | 31 | 1008.8 |
| 20260504185444 | 78 | 161 | 0.9 | 3.5 | 0.00 | 0.00 | 0.00 | 31 | 1008.8 |
| 20260504185206 | 78 | 203 | 1.7 | 6.1 | 0.00 | 0.00 | 0.00 | 32 | 1009.0 |
| 20260504184445 | 77 | 144 | 0.9 | 6.1 | 0.00 | 0.00 | 0.00 | 32 | 1009.1 |
| 20260504183942 | 77 | 167 | 0.9 | 3.5 | 0.00 | 0.00 | 0.00 | 33 | 1009.0 |
| 20260504183440 | 76 | 56 | 0.9 | 2.6 | 0.00 | 0.00 | 0.00 | 32 | 1009.1 |
| 20260504182941 | 76 | 58 | 0.9 | 8.7 | 0.00 | 0.00 | 0.00 | 31 | 1009.1 |
| 20260504182441 | 76 | 234 | 0.9 | 8.7 | 0.00 | 0.00 | 0.00 | 31 | 1009.1 |
| 20260504181939 | 76 | 85 | 0.9 | 4.3 | 0.00 | 0.00 | 0.00 | 30 | 1009.1 |
| 20260504181439 | 76 | 118 | 0.9 | 6.1 | 0.00 | 0.00 | 0.00 | 30 | 1009.2 |
| 20260504180938 | 76 | 150 | 0.9 | 6.1 | 0.00 | 0.00 | 0.00 | 31 | 1009.3 |
| 20260504180706 | 76 | 224 | 0.9 | 2.6 | 0.00 | 0.00 | 0.00 | 33 | 1009.4 |
| 20260504175935 | 75 | 34 | 0.9 | 4.3 | 0.00 | 0.00 | 0.00 | 35 | 1009.4 |
| 20260504175657 | 75 | 200 | 1.7 | 4.3 | 0.00 | 0.00 | 0.00 | 32 | 1009.4 |
| 20260504174935 | 75 | 180 | 0.9 | 4.3 | 0.00 | 0.00 | 0.00 | 33 | 1009.5 |
| 20260504174435 | 75 | 225 | 0.9 | 4.3 | 0.00 | 0.00 | 0.00 | 32 | 1009.4 |
| 20260504173936 | 75 | 211 | 0.9 | 4.3 | 0.00 | 0.00 | 0.00 | 31 | 1009.5 |
| 20260504173926 | 76 | 224 | 0.9 | 4.3 | 0.00 | 0.00 | 0.00 | 32 | 1009.7 |
| 20260504172935 | 76 | 233 | 0.9 | 5.2 | 0.00 | 0.00 | 0.00 | 32 | 1009.7 |
| 20260504172658 | 77 | 122 | 0.9 | 5.2 | 0.00 | 0.00 | 0.00 | 34 | 1009.7 |
| 20260504172427 | 77 | 60 | 0.9 | 5.2 | 0.00 | 0.00 | 0.00 | 32 | 1009.7 |
| 20260504171431 | 76 | 322 | 1.7 | 6.1 | 0.00 | 0.00 | 0.00 | 33 | 1009.9 |
| 20260504171147 | 76 | 37 | 0.9 | 6.1 | 0.00 | 0.00 | 0.00 | 32 | 1009.9 |
| 20260504170431 | 76 | 51 | 1.7 | 4.3 | 0.00 | 0.00 | 0.00 | 33 | 1010.0 |
| 20260504160426 | 72 | 142 | 0.9 | 3.5 | 0.00 | 0.00 | 0.00 | 35 | 1010.5 |
| 20260504150853 | 67 | 41 | 0.0 | 3.5 | 0.00 | 0.00 | 0.00 | 41 | 1011.0 |
| 20260504150347 | 67 | 198 | 0.0 | 2.6 | 0.00 | 0.00 | 0.00 | 43 | 1011.0 |
| 20260504140741 | 62 | 5 | 0.0 | 2.6 | 0.00 | 0.00 | 0.00 | 49 | 1011.3 |
| 20260504140235 | 62 | 105 | 0.9 | 5.2 | 0.00 | 0.00 | 0.00 | 51 | 1011.4 |
| 20260504130629 | 58 | 217 | 0.9 | 4.3 | 0.00 | 0.00 | 0.00 | 56 | 1011.7 |
| 20260504130123 | 57 | 123 | 0.0 | 3.5 | 0.00 | 0.00 | 0.00 | 57 | 1011.8 |
| 20260504110405 | 50 | 213 | 0.0 | 0.0 | 0.00 | 0.00 | 0.00 | 68 | 1012.0 |
| 20260504100335 | 51 | 213 | 0.0 | 0.0 | 0.00 | 0.00 | 0.00 | 63 | 1011.9 |
| 20260504081748 | 53 | 213 | 0.0 | 0.0 | 0.00 | 0.00 | 0.00 | 58 | 1012.3 |
| 20260504081506 | 53 | 213 | 0.0 | 0.0 | 0.00 | 0.00 | 0.00 | 56 | 1012.3 |
| 20260504080749 | 53 | 213 | 0.0 | 0.0 | 0.00 | 0.00 | 0.00 | 56 | 1012.2 |
| 20260504080249 | 53 | 213 | 0.0 | 0.0 | 0.00 | 0.00 | 0.00 | 56 | 1012.2 |
| 20260504070244 | 51 | 181 | 0.0 | 0.0 | 0.00 | 0.00 | 0.00 | 60 | 1012.1 |
| 20260504050616 | 46 | 4 | 0.0 | 0.0 | 0.00 | 0.00 | 0.00 | 69 | 1012.2 |
| 20260504050108 | 46 | 4 | 0.0 | 0.0 | 0.00 | 0.00 | 0.00 | 69 | 1012.2 |
| 20260504045602 | 46 | 4 | 0.0 | 0.0 | 0.00 | 0.00 | 0.00 | 69 | 1012.2 |
| 20260504045057 | 46 | 4 | 0.0 | 0.0 | 0.00 | 0.00 | 0.00 | 69 | 1012.1 |
| 20260504044551 | 46 | 4 | 0.0 | 0.0 | 0.00 | 0.00 | 0.00 | 69 | 1012.2 |
| 20260504044045 | 46 | 4 | 0.0 | 0.0 | 0.00 | 0.00 | 0.00 | 69 | 1012.2 |
| 20260504043758 | 46 | 4 | 0.0 | 0.0 | 0.00 | 0.00 | 0.00 | 69 | 1012.1 |
| 20260504043033 | 46 | 4 | 0.0 | 0.0 | 0.00 | 0.00 | 0.00 | 70 | 1012.1 |
| 20260504042527 | 46 | 4 | 0.0 | 0.0 | 0.00 | 0.00 | 0.00 | 70 | 1012.2 |
| 20260504042020 | 46 | 4 | 0.0 | 0.0 | 0.00 | 0.00 | 0.00 | 72 | 1012.1 |
| 20260504041514 | 46 | 4 | 0.0 | 0.0 | 0.00 | 0.00 | 0.00 | 72 | 1012.1 |
| 20260504041008 | 46 | 4 | 0.0 | 0.0 | 0.00 | 0.00 | 0.00 | 73 | 1012.1 |
| 20260504040721 | 46 | 4 | 0.0 | 0.0 | 0.00 | 0.00 | 0.00 | 72 | 1012.1 |
| 20260504040001 | 46 | 4 | 0.0 | 0.0 | 0.00 | 0.00 | 0.00 | 72 | 1012.1 |
| 20260504035458 | 46 | 4 | 0.0 | 0.0 | 0.00 | 0.00 | 0.00 | 71 | 1012.0 |
| 20260504034957 | 46 | 4 | 0.0 | 0.0 | 0.00 | 0.00 | 0.00 | 71 | 1012.0 |
| 20260504034453 | 46 | 4 | 0.0 | 0.0 | 0.00 | 0.00 | 0.00 | 71 | 1012.0 |
| 20260504034217 | 46 | 3 | 0.0 | 0.0 | 0.00 | 0.00 | 0.00 | 71 | 1012.1 |
| 20260504033454 | 46 | 4 | 0.0 | 0.0 | 0.00 | 0.00 | 0.00 | 70 | 1012.1 |
| 20260504033222 | 46 | 4 | 0.0 | 0.0 | 0.00 | 0.00 | 0.00 | 71 | 1012.1 |
| 20260504032944 | 46 | 4 | 0.0 | 0.0 | 0.00 | 0.00 | 0.00 | 70 | 1012.1 |
| 20260504031953 | 46 | 4 | 0.0 | 0.0 | 0.00 | 0.00 | 0.00 | 70 | 1012.1 |
| 20260504031455 | 46 | 4 | 0.0 | 0.0 | 0.00 | 0.00 | 0.00 | 69 | 1012.1 |
| 20260504030952 | 46 | 4 | 0.0 | 0.0 | 0.00 | 0.00 | 0.00 | 69 | 1012.0 |
| 20260504030452 | 46 | 4 | 0.0 | 0.0 | 0.00 | 0.00 | 0.00 | 69 | 1011.9 |
| 20260504025952 | 46 | 4 | 0.0 | 0.0 | 0.00 | 0.00 | 0.00 | 69 | 1012.0 |
| 20260504025453 | 46 | 4 | 0.0 | 0.0 | 0.00 | 0.00 | 0.00 | 68 | 1012.1 |
| 20260504024949 | 46 | 4 | 0.0 | 0.0 | 0.00 | 0.00 | 0.00 | 68 | 1012.0 |
| 20260504024448 | 46 | 4 | 0.0 | 0.0 | 0.00 | 0.00 | 0.00 | 67 | 1012.0 |
| 20260504023948 | 46 | 4 | 0.0 | 0.0 | 0.00 | 0.00 | 0.00 | 67 | 1012.0 |
| 20260504023447 | 47 | 4 | 0.0 | 0.0 | 0.00 | 0.00 | 0.00 | 66 | 1012.1 |
| 20260504023210 | 47 | 4 | 0.0 | 0.0 | 0.00 | 0.00 | 0.00 | 65 | 1012.1 |
| 20260504022448 | 47 | 4 | 0.0 | 0.0 | 0.00 | 0.00 | 0.00 | 65 | 1012.1 |
| 20260504021948 | 47 | 4 | 0.0 | 0.0 | 0.00 | 0.00 | 0.00 | 65 | 1012.0 |
| 20260504021447 | 48 | 4 | 0.0 | 0.0 | 0.00 | 0.00 | 0.00 | 64 | 1012.0 |
| 20260504020949 | 48 | 4 | 0.0 | 0.0 | 0.00 | 0.00 | 0.00 | 63 | 1011.9 |
| 20260504020447 | 48 | 4 | 0.0 | 0.0 | 0.00 | 0.00 | 0.00 | 62 | 1011.9 |
| 20260504020210 | 48 | 3 | 0.0 | 0.0 | 0.00 | 0.00 | 0.00 | 61 | 1011.9 |
| 20260504015448 | 49 | 4 | 0.0 | 0.0 | 0.00 | 0.00 | 0.00 | 61 | 1011.9 |
| 20260504014949 | 49 | 4 | 0.0 | 0.0 | 0.00 | 0.00 | 0.00 | 61 | 1011.9 |
| 20260504014710 | 49 | 4 | 0.0 | 0.0 | 0.00 | 0.00 | 0.00 | 60 | 1011.8 |
| 20260504013948 | 49 | 4 | 0.0 | 0.0 | 0.00 | 0.00 | 0.00 | 59 | 1011.9 |
| 20260504013714 | 50 | 4 | 0.0 | 0.0 | 0.00 | 0.00 | 0.00 | 59 | 1011.9 |
| 20260504012952 | 50 | 4 | 0.0 | 0.0 | 0.00 | 0.00 | 0.00 | 57 | 1011.9 |
| 20260504012449 | 50 | 4 | 0.0 | 0.0 | 0.00 | 0.00 | 0.00 | 56 | 1011.8 |
| 20260504011940 | 51 | 4 | 0.0 | 0.0 | 0.00 | 0.00 | 0.00 | 55 | 1011.8 |
| 20260504011436 | 51 | 4 | 0.0 | 0.0 | 0.00 | 0.00 | 0.00 | 55 | 1011.7 |
| 20260504010931 | 51 | 4 | 0.0 | 0.0 | 0.00 | 0.00 | 0.00 | 55 | 1011.7 |
| 20260504010425 | 52 | 4 | 0.0 | 0.0 | 0.00 | 0.00 | 0.00 | 53 | 1011.7 |
| 20260504005919 | 52 | 4 | 0.0 | 0.0 | 0.00 | 0.00 | 0.00 | 52 | 1011.7 |
| 20260504005413 | 53 | 3 | 0.0 | 0.0 | 0.00 | 0.00 | 0.00 | 51 | 1011.8 |
| 20260504005134 | 53 | 4 | 0.0 | 0.0 | 0.00 | 0.00 | 0.00 | 51 | 1011.8 |
| 20260504004401 | 53 | 4 | 0.0 | 0.0 | 0.00 | 0.00 | 0.00 | 50 | 1011.7 |
| 20260504003855 | 54 | 4 | 0.0 | 0.0 | 0.00 | 0.00 | 0.00 | 49 | 1011.7 |
| 20260504003349 | 54 | 4 | 0.0 | 0.0 | 0.00 | 0.00 | 0.00 | 48 | 1011.6 |
| 20260504002843 | 55 | 4 | 0.0 | 0.0 | 0.00 | 0.00 | 0.00 | 47 | 1011.6 |
| 20260504002337 | 56 | 4 | 0.0 | 0.0 | 0.00 | 0.00 | 0.00 | 46 | 1011.5 |
| 20260504002057 | 56 | 3 | 0.0 | 0.0 | 0.00 | 0.00 | 0.00 | 45 | 1011.6 |
| 20260504001326 | 57 | 4 | 0.0 | 0.0 | 0.00 | 0.00 | 0.00 | 43 | 1011.5 |
| 20260504000818 | 57 | 4 | 0.0 | 0.0 | 0.00 | 0.00 | 0.00 | 43 | 1011.4 |
| 20260504000313 | 58 | 4 | 0.0 | 0.0 | 0.00 | 0.00 | 0.00 | 42 | 1011.4 |
| 20260504000025 | 59 | 4 | 0.0 | 0.0 | 0.00 | 0.00 | 0.00 | 41 | 1011.3 |
| 20260503235300 | 60 | 4 | 0.0 | 0.0 | 0.00 | 0.00 | 0.00 | 38 | 1011.3 |
| 20260503234755 | 60 | 4 | 0.0 | 0.0 | 0.00 | 0.00 | 0.00 | 39 | 1011.2 |
| 20260503234249 | 60 | 4 | 0.0 | 0.9 | 0.00 | 0.00 | 0.00 | 38 | 1011.2 |
| 20260503233742 | 61 | 4 | 0.0 | 0.9 | 0.00 | 0.00 | 0.00 | 36 | 1011.2 |
| 20260503233236 | 61 | 345 | 0.0 | 0.9 | 0.00 | 0.00 | 0.00 | 36 | 1011.1 |
| 20260503232730 | 62 | 345 | 0.0 | 0.9 | 0.00 | 0.00 | 0.00 | 36 | 1011.2 |
| 20260503232226 | 62 | 124 | 0.0 | 0.9 | 0.00 | 0.00 | 0.00 | 35 | 1011.1 |
| 20260503231719 | 62 | 205 | 0.0 | 2.6 | 0.00 | 0.00 | 0.00 | 34 | 1011.1 |
| 20260503231704 | 62 | 153 | 0.0 | 2.6 | 0.00 | 0.00 | 0.00 | 33 | 1011.0 |
| 20260503230707 | 63 | 217 | 0.0 | 1.7 | 0.00 | 0.00 | 0.00 | 34 | 1011.0 |
| 20260503230201 | 63 | 216 | 0.0 | 1.7 | 0.00 | 0.00 | 0.00 | 32 | 1011.1 |
| 20260503225655 | 63 | 111 | 0.0 | 3.5 | 0.00 | 0.00 | 0.00 | 32 | 1011.1 |
| 20260503225149 | 63 | 193 | 0.9 | 3.5 | 0.00 | 0.00 | 0.00 | 32 | 1011.1 |
| 20260503224643 | 63 | 350 | 0.0 | 3.5 | 0.00 | 0.00 | 0.00 | 32 | 1011.2 |
| 20260503224403 | 64 | 211 | 0.9 | 5.2 | 0.00 | 0.00 | 0.00 | 31 | 1011.1 |
| 20260503223858 | 64 | 98 | 0.9 | 5.2 | 0.00 | 0.00 | 0.00 | 31 | 1011.2 |
| 20260503223125 | 64 | 83 | 0.0 | 4.3 | 0.00 | 0.00 | 0.00 | 30 | 1011.2 |
| 20260503222619 | 64 | 227 | 0.0 | 2.6 | 0.00 | 0.00 | 0.00 | 30 | 1011.1 |
| 20260503222113 | 65 | 205 | 0.9 | 2.6 | 0.00 | 0.00 | 0.00 | 30 | 1011.2 |
| 20260503221606 | 65 | 203 | 0.9 | 4.3 | 0.00 | 0.00 | 0.00 | 30 | 1011.3 |
| 20260503221101 | 65 | 202 | 0.9 | 4.3 | 0.00 | 0.00 | 0.00 | 30 | 1011.3 |
| 20260503220554 | 66 | 200 | 0.9 | 3.5 | 0.00 | 0.00 | 0.00 | 28 | 1011.3 |
| 20260503220049 | 66 | 8 | 0.0 | 0.9 | 0.00 | 0.00 | 0.00 | 28 | 1011.4 |
| 20260503220029 | 66 | 164 | 0.0 | 3.5 | 0.00 | 0.00 | 0.00 | 30 | 1011.4 |
| 20260503215304 | 66 | 169 | 0.9 | 5.2 | 0.00 | 0.00 | 0.00 | 28 | 1011.4 |
| 20260503214731 | 68 | 231 | 0.9 | 5.2 | 0.00 | 0.00 | 0.00 | 27 | 1011.5 |
| 20260503214618 | 67 | 207 | 0.9 | 5.2 | 0.00 | 0.00 | 0.00 | 27 | 1011.4 |
| 20260503213519 | 69 | 118 | 0.9 | 5.2 | 0.00 | 0.00 | 0.00 | 27 | 1011.4 |
| 20260503213013 | 69 | 219 | 0.0 | 1.7 | 0.00 | 0.00 | 0.00 | 27 | 1011.3 |
| 20260503212507 | 68 | 204 | 0.9 | 1.7 | 0.00 | 0.00 | 0.00 | 27 | 1011.3 |
| 20260503212002 | 68 | 230 | 0.9 | 6.1 | 0.00 | 0.00 | 0.00 | 26 | 1011.3 |
| 20260503211455 | 68 | 18 | 0.9 | 6.1 | 0.00 | 0.00 | 0.00 | 28 | 1011.3 |
| 20260503210949 | 68 | 156 | 0.9 | 6.1 | 0.00 | 0.00 | 0.00 | 27 | 1011.3 |
| 20260503210442 | 68 | 160 | 0.0 | 2.6 | 0.00 | 0.00 | 0.00 | 27 | 1011.2 |
| 20260503205937 | 67 | 208 | 0.9 | 4.3 | 0.00 | 0.00 | 0.00 | 28 | 1011.3 |
| 20260503205430 | 67 | 279 | 0.9 | 4.3 | 0.00 | 0.00 | 0.00 | 28 | 1011.3 |
| 20260503204925 | 67 | 30 | 0.9 | 4.3 | 0.00 | 0.00 | 0.00 | 28 | 1011.4 |
| 20260503204643 | 67 | 191 | 0.9 | 4.3 | 0.00 | 0.00 | 0.00 | 29 | 1011.3 |
| 20260503203913 | 67 | 231 | 0.9 | 5.2 | 0.00 | 0.00 | 0.00 | 29 | 1011.2 |
| 20260503203406 | 67 | 105 | 0.9 | 5.2 | 0.00 | 0.00 | 0.00 | 28 | 1011.2 |
| 20260503203118 | 67 | 151 | 0.9 | 7.0 | 0.00 | 0.00 | 0.00 | 29 | 1011.4 |